World > North America > United States > North Dakota

Kongsberg, North Dakota Regional Weather

Lat: 47.85N, Lon: 100.8W
Wx Zone: NDZ021
Feedback

Kongsberg, ND Regional Weather

Expires:201910181100;;887137
ASUS43 KBIS 181010
RWRND 

NORTH DAKOTA REGIONAL WEATHER ROUNDUP
NATIONAL WEATHER SERVICE BISMARCK ND
500 AM CDT FRI OCT 18 2019

NOTE: "FAIR" INDICATES FEW OR NO CLOUDS BELOW 12,000 FEET WITH NO
SIGNIFICANT WEATHER AND/OR OBSTRUCTIONS TO VISIBILITY.



NDZ018>021-031>035-040>046-181100-
SOUTHWEST NORTH DAKOTA
  
CITY           SKY/WX    TMP DP  RH WIND       PRES   REMARKS
BISMARCK       CLOUDY    43  40  89 N3        29.38S                  
DICKINSON      PTCLDY    46  37  71 NW18      29.42R                  
GARRISON         N/A     38  37  97 CALM      29.37R                  
HETTINGER ARPT PTCLDY    47  37  68 NW14      29.45R                  
$$
 

SKY/WX - Weather  TMP - Temperature  DP - Dew Point  RH - Relative Humidity
WIND - Wind Direction/Speed PRES - Barometric Pressure VSB - Visibility
WCI - Wind Chill Index E13G22 Wind - East Wind 13 mph/Gusts of 22 mph